Wind_Speed
41 40 39 38 37 37 37 37 35 33 30 26 25 26 28 30 31 31 30 29 28 26 24 23 23 24 24 23 21 19 18 19 20 20 20 20 20 20 21 21 22 23 23 23 23 24 25 26 24 20 16 15 14 13 15 17 16 17 17 18 19 19 20 21 21 21 21 22 22 23 23 22 23 24 25 25 26 26 26 26 27 27 27 28 28
41 39 38 36 35 34 34 32 29 25 23 22 23 25 27 28 27 27 27 26 25 23 21 20 20 20 20 19 18 18 18 19 21 21 21 22 23 24 24 26 27 28 27 25 25 25 26 25 22 17 15 15 15 13 16 17 17 18 20 20 20 20 20 20 21 21 20 20 21 22 23 24 24 24 25 25 25 25 26 26 26 27 28 29 30
39 37 36 34 32 31 29 26 23 20 19 20 21 23 25 26 26 26 25 24 22 19 18 17 17 17 17 17 17 18 19 20 22 24 24 25 27 29 30 31 32 31 29 26 26 26 25 23 19 16 15 16 15 14 15 17 17 17 19 21 21 21 21 21 21 21 21 20 20 21 22 22 22 23 24 24 25 25 26 26 27 27 28 28 30
36 34 32 31 29 27 24 21 19 18 17 18 20 22 23 24 25 25 23 21 19 16 15 15 15 16 17 18 19 21 22 24 26 28 29 29 30 32 33 32 30 28 26 25 25 25 23 21 17 15 16 16 15 14 15 17 17 16 17 19 19 20 20 20 20 20 20 20 20 20 20 21 21 22 23 24 25 26 27 28 29 29 30 30 31
32 31 30 28 25 23 21 19 18 17 17 18 19 20 20 22 22 21 20 19 17 15 15 15 16 17 19 20 21 22 23 24 26 28 30 30 28 28 28 27 25 23 24 25 24 23 22 19 16 15 15 15 15 15 15 17 18 17 17 17 17 16 16 17 17 17 17 18 18 18 19 20 21 22 23 25 26 28 29 30 31 32 33 33 33
29 28 26 24 22 20 19 18 17 16 17 18 18 18 19 21 19 18 19 18 16 15 15 16 17 17 18 18 18 19 20 22 23 24 25 26 25 24 24 24 23 23 23 23 22 22 20 17 15 14 15 16 16 16 15 16 17 18 18 17 16 15 15 15 15 15 16 16 16 16 18 19 21 22 23 24 25 26 27 29 30 31 33 34 34
26 24 22 20 19 19 18 17 16 16 17 18 19 19 20 20 18 17 18 18 16 14 14 14 13 14 15 15 15 15 17 18 19 21 22 23 23 22 22 22 22 21 21 20 19 19 18 16 15 15 16 16 16 16 16 16 16 16 16 17 17 16 16 16 15 15 15 15 15 17 18 20 21 21 19 19 19 19 21 22 24 26 29 31 32
23 21 19 18 18 18 17 17 16 17 17 19 20 20 20 19 19 18 17 17 16 15 13 11 11 13 12 11 12 12 13 15 17 20 21 20 18 17 17 17 16 15 14 15 16 16 15 15 16 16 17 18 18 18 16 16 15 15 16 16 17 17 17 16 15 14 14 15 16 18 19 20 20 18 15 14 13 13 14 15 17 20 23 27 29
21 19 18 18 19 18 17 17 17 17 18 19 20 21 20 19 19 18 17 16 15 15 14 13 12 11 9 9 11 12 11 13 17 18 18 16 14 12 12 11 12 11 9 11 11 11 11 14 16 17 18 19 19 18 16 15 14 14 14 15 16 17 17 16 15 14 14 15 17 19 20 20 20 18 16 15 15 15 15 15 16 17 19 22 26
20 19 19 20 20 18 18 18 19 19 19 19 20 21 19 18 18 18 17 15 14 15 16 15 11 6 7 9 12 14 13 14 16 16 14 12 10 9 8 8 10 8 6 9 10 8 10 13 15 16 17 18 17 16 14 13 13 14 14 15 16 17 17 17 16 16 17 18 18 19 20 20 21 21 20 19 20 20 20 21 21 21 20 21 24
22 21 21 21 20 19 19 19 20 20 19 19 21 21 19 18 17 17 16 15 14 14 16 14 9 5 7 11 13 15 15 14 13 13 13 10 8 8 7 7 6 4 5 10 10 9 10 12 13 12 14 15 15 15 15 15 15 15 15 16 16 17 18 19 19 20 20 20 20 20 21 21 22 23 23 23 24 24 25 25 26 26 25 24 25
23 23 23 21 20 20 20 21 21 21 20 20 21 21 19 18 17 17 17 17 15 14 14 13 11 10 11 13 14 16 15 14 12 12 12 10 7 7 7 7 7 7 9 12 13 13 14 16 16 15 16 17 17 17 17 17 16 15 15 17 18 19 20 22 22 22 22 22 22 21 22 22 22 23 25 26 27 28 28 29 29 29 29 28 28
24 24 23 21 21 21 22 23 22 22 21 22 22 21 21 20 19 19 20 20 17 13 13 14 14 14 14 15 16 17 16 14 13 12 12 11 9 8 8 10 12 14 17 18 18 20 20 21 21 21 20 19 18 18 18 18 17 17 17 17 19 20 22 24 25 24 24 24 24 23 23 24 24 25 26 27 29 30 31 32 33 32 32 31 30
25 25 24 23 23 23 24 24 23 23 23 23 23 23 23 22 22 23 23 23 18 13 13 14 15 16 16 16 17 18 18 16 13 12 12 12 11 9 9 9 11 14 17 19 19 20 20 21 21 21 20 19 19 18 18 19 19 19 19 19 20 21 23 26 26 26 26 26 27 26 25 26 27 28 28 29 30 31 33 35 36 35 35 34 32
27 26 26 26 25 25 26 25 24 25 25 25 25 25 25 24 25 25 24 23 18 13 12 14 16 17 18 18 19 19 19 17 13 11 12 12 12 11 8 8 10 12 13 15 17 18 18 18 19 19 18 18 18 18 18 19 21 22 22 22 22 22 23 24 25 26 27 27 28 28 27 28 29 30 31 32 33 34 36 37 38 37 36 36 35
29 29 28 28 28 28 27 27 26 26 27 27 27 27 27 26 26 26 24 22 19 15 13 14 16 17 17 18 19 20 19 16 13 12 12 12 12 12 8 10 12 10 11 15 17 18 18 19 19 18 18 18 19 19 20 21 23 24 24 24 24 24 25 25 26 27 27 28 29 29 29 30 31 32 34 35 36 37 38 39 39 38 38 39 39
31 31 30 30 30 30 29 28 28 29 29 29 29 29 28 27 26 25 23 21 20 17 14 14 15 16 17 17 18 19 18 16 16 13 12 12 13 13 12 12 11 10 13 17 18 17 18 19 19 19 19 20 21 21 21 22 23 24 25 25 24 25 26 27 28 28 29 30 31 31 31 33 34 35 36 37 39 40 41 42 42 41 41 40 41
34 33 33 33 32 30 29 29 30 30 30 30 30 29 28 26 25 24 22 21 21 19 17 14 15 16 17 17 18 18 17 18 18 15 13 13 13 12 13 14 12 13 17 19 19 18 18 18 19 19 20 21 22 22 23 23 23 23 24 24 24 25 27 28 30 31 33 34 35 34 34 35 37 38 39 39 41 43 45 47 46 45 44 43 42
36 36 36 34 33 31 29 29 30 30 30 29 29 28 27 25 24 24 23 22 22 20 18 16 15 17 18 17 17 17 17 17 16 16 16 15 14 14 15 16 17 19 20 20 21 21 21 21 22 22 21 22 23 23 24 25 25 27 28 28 28 29 30 32 34 36 37 39 39 38 37 38 39 41 42 43 46 48 48 48 47 46 45 45 44
38 37 37 35 34 32 30 30 29 29 29 28 28 27 26 25 25 25 25 24 22 20 18 16 16 17 18 18 17 16 15 15 14 15 16 16 17 18 18 18 19 20 20 21 22 23 23 24 25 26 26 26 27 27 28 30 34 36 36 35 34 34 36 37 38 39 40 41 41 41 42 42 43 44 46 47 48 48 46 45 45 45 45 45 45
40 39 38 37 36 34 33 33 33 32 31 31 30 29 29 28 28 28 27 25 22 20 18 17 16 17 18 18 17 16 16 15 15 15 15 16 19 20 20 21 20 20 20 22 24 26 27 28 28 30 31 31 33 32 32 33 36 39 39 39 39 40 41 42 43 44 44 44 44 43 43 43 43 44 44 44 44 43 42 43 44 44 44 45 46
42 41 40 39 37 36 36 37 37 37 36 35 35 34 33 33 32 30 28 25 22 19 18 17 17 17 17 17 17 16 16 15 15 15 15 17 20 21 22 22 23 22 21 22 24 27 30 33 34 34 34 35 36 37 37 37 39 41 42 43 43 44 44 45 45 44 44 43 42 40 40 39 39 40 40 41 41 41 41 42 43 43 44 44 45
45 43 41 40 39 38 38 38 38 38 38 37 37 37 36 34 33 31 28 25 21 19 18 18 17 16 16 17 18 17 16 15 16 17 17 19 20 20 21 23 24 24 24 23 23 24 27 29 32 33 33 33 35 36 37 38 39 40 41 42 42 42 42 42 41 40 39 38 37 37 37 38 39 40 41 42 43 43 43 43 43 43 44 44 44
45 44 43 42 40 39 38 38 38 38 37 37 37 36 35 33 32 30 27 24 21 19 18 18 17 17 17 17 18 19 19 18 18 19 19 20 20 20 22 25 26 26 26 26 25 24 24 24 26 27 27 28 29 30 31 33 34 35 35 36 37 38 38 38 38 37 37 37 37 38 39 41 43 45 46 47 48 47 46 45 44 43 44 45 45
44 45 44 43 41 40 39 38 38 37 37 36 36 35 33 32 31 29 26 24 21 19 19 18 18 18 20 19 18 21 22 21 20 19 20 22 23 24 25 27 27 27 27 28 28 28 27 28 28 28 28 28 28 29 29 31 32 33 34 35 37 38 39 39 39 38 38 38 40 43 45 48 50 51 51 51 51 50 49 48 46 44 44 45 45
46 46 45 43 42 40 39 38 37 36 36 35 35 33 32 31 29 27 25 23 21 21 20 19 19 20 21 20 20 22 23 22 22 21 21 23 25 25 26 28 28 27 26 26 27 28 29 29 30 30 30 31 31 32 32 33 34 35 35 36 38 40 42 42 43 42 42 43 46 49 52 54 54 54 53 52 51 50 49 48 47 45 44 44 45
44 44 43 41 40 39 39 37 36 35 34 34 34 32 31 30 28 26 25 23 22 22 22 21 21 21 22 22 23 24 24 24 24 23 22 23 25 26 27 27 27 26 24 24 24 26 27 27 28 29 29 30 31 32 33 35 36 37 38 39 40 42 44 45 47 47 48 49 53 55 57 56 55 54 52 51 50 49 49 48 48 46 45 45 46
40 40 39 39 38 37 37 36 35 34 33 33 32 32 31 29 28 26 25 24 23 23 23 23 22 23 23 24 24 25 25 25 26 25 23 23 24 26 26 26 25 24 23 23 23 24 25 26 27 28 28 29 31 32 33 35 36 38 39 41 43 45 47 48 49 51 53 55 57 58 58 57 55 54 53 52 52 52 51 49 48 47 46 46 47
39 38 37 36 35 34 34 34 34 34 32 32 32 31 31 30 29 27 26 25 24 25 25 25 25 24 25 25 26 27 27 27 28 27 25 25 25 25 25 25 24 24 23 22 23 23 24 25 27 28 29 30 31 32 33 34 35 37 38 40 42 44 46 48 50 51 53 55 56 57 57 57 56 55 55 56 56 55 53 51 49 48 48 47 47
39 36 34 34 33 33 33 33 33 32 31 31 32 32 31 30 29 28 27 26 25 25 26 27 26 26 26 27 28 28 29 29 29 28 27 27 27 25 25 25 24 24 24 23 23 23 23 24 26 27 29 30 32 32 33 34 35 36 38 40 41 43 45 47 48 50 51 53 55 56 57 57 58 58 59 58 57 55 53 51 50 49 49 49 49
35 33 33 33 34 33 33 32 31 31 31 31 31 31 30 29 29 28 27 27 26 27 28 28 28 28 28 28 28 29 29 29 29 28 29 30 30 28 27 26 25 24 25 25 25 24 24 24 25 26 27 29 31 32 33 34 34 35 36 38 40 43 45 46 48 50 51 53 54 56 58 59 59 58 57 56 54 52 51 50 49 50 50 50 50
30 29 30 32 33 33 32 31 30 30 31 30 30 30 30 29 28 28 28 29 29 29 29 30 30 29 29 29 29 29 29 29 29 30 31 32 31 30 28 27 26 26 26 26 27 27 26 26 26 26 27 29 30 32 34 34 35 35 35 36 38 41 43 46 48 50 52 53 55 57 58 57 55 54 53 52 51 50 49 49 49 50 50 51 51
27 27 28 29 31 31 31 31 31 30 30 30 29 29 29 29 29 30 30 30 30 30 31 31 31 31 31 30 29 27 27 28 29 31 32 32 31 30 30 30 29 28 28 28 28 28 29 29 29 29 30 31 32 33 35 36 37 38 38 38 39 41 42 45 47 49 52 54 55 56 55 53 51 50 51 51 50 49 49 49 49 50 50 51 51
27 27 28 30 31 32 32 32 31 30 30 30 30 30 31 31 32 32 32 32 31 31 32 32 32 32 30 28 27 27 28 29 31 31 32 31 30 30 31 31 30 29 29 29 30 30 30 31 32 33 34 34 35 37 37 39 40 42 43 44 44 44 44 45 46 48 50 52 52 52 52 50 48 49 50 50 50 50 49 49 50 50 50 51 52
28 30 32 33 35 35 34 34 33 32 32 33 33 34 35 35 35 34 33 32 32 33 33 33 32 31 29 28 28 29 30 31 31 32 32 30 30 31 32 31 30 30 30 31 31 32 33 34 36 37 38 39 40 41 41 42 43 44 47 49 49 48 47 47 47 48 48 49 49 50 49 48 47 48 49 50 50 50 50 51 51 51 51 52 52
32 33 35 36 36 36 35 35 35 35 35 36 37 37 37 37 36 35 34 34 34 34 34 33 31 29 29 30 31 32 33 33 33 33 32 31 31 33 33 31 30 30 32 33 34 35 37 38 40 41 43 44 45 45 46 46 46 47 49 50 51 51 51 50 49 48 48 48 48 48 48 48 47 47 48 49 51 51 52 52 52 51 52 52 52
38 38 38 38 37 36 36 36 37 37 37 38 38 38 38 37 37 35 35 35 35 34 33 31 30 31 33 34 35 35 35 35 34 34 34 34 35 36 35 33 31 32 33 35 36 38 41 43 44 46 47 48 49 50 51 51 50 50 51 52 53 54 54 53 52 50 49 48 48 48 48 48 47 47 48 49 50 52 53 53 52 52 52 52 51
41 40 39 39 39 38 39 39 40 40 39 38 38 39 39 39 38 36 35 35 34 33 32 32 33 35 36 37 38 37 36 36 36 36 37 37 38 38 37 35 34 35 36 38 40 42 44 46 49 51 53 54 54 55 55 55 54 54 54 55 55 56 56 55 54 52 51 49 49 48 48 48 47 47 48 49 50 52 53 53 53 53 53 53 52
39 39 39 39 40 40 40 41 41 41 41 40 40 41 41 40 38 37 35 34 34 34 35 36 37 39 40 40 40 39 38 38 38 39 40 41 41 40 38 37 37 38 39 41 43 45 48 50 53 56 58 59 59 59 59 58 58 57 58 58 58 57 57 57 55 54 52 51 49 48 48 48 47 47 48 50 51 52 53 54 54 54 54 55 55
39 40 41 41 42 41 41 41 41 42 42 42 41 41 39 39 38 36 35 34 35 36 38 40 41 43 43 43 43 42 41 41 41 42 42 42 42 41 40 39 40 41 43 45 47 50 52 55 58 60 61 62 63 62 61 61 61 61 61 60 59 58 58 56 55 54 52 51 49 48 48 47 47 47 48 50 51 53 54 55 55 55 56 56 57
40 41 41 40 40 39 39 39 40 41 42 42 41 40 39 39 39 37 37 37 38 40 42 45 46 46 46 46 45 44 43 44 44 43 43 42 42 41 41 41 42 44 47 50 52 55 58 61 63 64 65 65 65 64 63 62 63 63 63 61 60 59 57 55 54 53 51 50 49 48 48 47 46 47 48 49 51 52 53 54 54 55 55 56 57
38 40 40 40 40 41 41 42 44 44 44 43 42 42 42 41 40 38 39 40 42 45 48 49 49 49 48 47 46 45 45 45 44 43 42 42 42 43 43 44 46 49 52 56 58 61 63 65 66 67 67 67 66 65 64 64 64 64 63 62 60 58 56 54 53 53 51 49 48 48 48 47 46 47 48 49 50 51 51 52 53 53 54 55 56
44 44 45 45 46 47 48 48 48 47 45 44 44 44 44 43 41 41 43 45 48 50 51 51 50 49 48 46 46 46 45 44 43 42 42 43 44 45 46 49 52 55 59 62 64 66 67 68 68 68 68 68 67 66 66 66 65 65 64 62 59 57 55 53 52 52 52 50 47 47 48 48 47 46 47 48 49 50 50 50 52 52 53 53 54
51 52 53 53 53 53 51 50 48 47 46 45 44 45 45 45 45 47 49 51 52 52 52 51 50 49 47 46 46 45 44 44 44 44 45 47 49 51 53 56 60 62 65 66 68 69 69 69 70 70 70 69 69 68 68 67 66 65 64 62 59 57 55 53 51 51 52 51 48 46 47 48 48 47 47 48 48 48 49 50 51 51 52 53 53
54 56 56 55 54 52 50 49 48 48 47 47 47 47 48 49 50 52 52 53 53 52 50 50 50 49 48 48 48 48 48 48 50 51 52 54 57 59 62 65 67 68 69 70 71 71 71 71 71 71 71 70 70 70 70 68 66 65 63 61 59 57 55 55 53 51 51 52 50 48 47 48 49 49 48 48 48 48 48 49 50 50 51 52 53
56 56 56 56 55 53 52 50 49 49 49 49 50 50 51 51 51 52 52 52 52 51 50 51 51 52 51 52 53 54 55 57 58 60 62 64 66 68 69 70 71 71 72 72 73 73 73 73 73 73 72 72 71 71 69 68 67 65 63 61 59 58 56 56 55 53 53 54 54 52 51 49 50 52 51 49 50 50 49 50 51 51 51 52 53
57 56 54 53 52 52 52 51 50 49 49 49 50 51 53 53 53 53 53 53 52 52 53 54 55 56 57 59 61 63 65 66 67 69 70 71 71 72 72 73 74 74 74 75 75 75 75 75 75 74 73 72 72 71 70 69 67 65 63 61 60 59 58 58 57 55 55 56 56 56 55 52 52 56 56 54 54 54 52 52 54 55 54 55 56
58 57 55 52 50 49 49 49 49 50 50 50 51 52 54 55 55 55 56 56 57 57 58 60 62 64 66 69 70 72 72 72 72 73 73 73 74 74 75 75 76 76 76 76 77 77 77 77 75 74 73 72 72 72 71 69 68 66 64 62 61 61 60 60 59 58 58 58 58 59 59 57 55 59 61 60 60 59 57 56 57 60 60 59 59
60 60 60 58 56 55 55 55 55 55 55 55 55 56 56 58 59 60 61 62 64 65 67 69 71 72 73 74 75 75 75 75 75 76 76 76 76 76 77 78 78 79 79 79 79 79 78 76 75 74 74 74 73 73 72 71 69 68 67 65 64 64 63 62 62 61 60 60 62 63 63 61 60 61 64 64 65 65 64 63 62 64 65 65 64
60 61 61 61 61 61 61 61 60 60 60 60 61 62 63 64 66 68 69 70 72 73 75 76 76 76 76 77 77 77 77 77 78 78 78 79 79 80 81 82 82 82 81 81 80 80 78 76 76 76 76 75 74 73 73 73 72 71 70 68 67 67 66 66 65 64 63 63 65 66 66 64 64 65 66 66 67 68 69 69 68 67 68 69 68
61 62 63 63 64 65 65 65 65 66 66 67 68 69 70 71 73 74 75 76 77 78 78 79 79 79 79 80 80 80 80 80 81 82 83 84 85 85 85 85 84 83 83 82 80 79 79 79 78 78 77 76 76 75 74 74 74 73 73 73 72 71 70 70 69 69 68 67 69 71 70 69 68 68 68 69 70 69 70 72 73 72 71 71 72
Wind_Direction
285 286 287 287 288 287 288 290 292 294 295 297 299 301 302 301 301 300 300 300 298 294 291 288 287 286 283 280 274 269 266 267 267 265 262 261 263 265 266 270 275 278 281 282 280 280 276 270 264 262 263 261 255 246 229 220 223 232 239 242 240 239 238 238 239 242 245 247 247 248 250 250 248 247 249 252 253 253 253 255 256 257 258 258 259
286 286 286 287 286 287 289 291 293 294 296 300 304 305 306 307 307 306 304 301 298 294 292 290 287 283 280 277 273 269 266 264 263 262 261 263 266 268 270 273 277 281 283 282 279 277 274 268 262 259 261 258 252 244 230 224 225 231 237 240 242 241 241 241 241 243 246 249 249 250 251 251 250 251 252 254 254 254 253 254 255 256 256 256 257
285 285 285 285 286 288 290 292 293 294 298 303 306 307 309 312 313 311 309 305 301 296 293 290 284 279 276 273 268 265 262 261 262 263 265 268 271 272 274 276 278 281 282 279 275 272 269 261 255 255 258 255 249 243 230 224 229 237 239 241 242 243 244 246 246 247 249 250 251 251 252 254 255 257 259 260 260 260 259 258 258 258 258 257 256
283 284 285 286 288 290 291 292 293 295 301 306 307 308 310 312 314 315 315 310 304 298 292 287 281 276 273 271 266 265 264 265 267 268 268 271 274 277 278 279 279 279 278 274 271 268 262 253 247 252 256 252 246 242 232 226 231 241 244 243 243 243 244 247 248 249 249 250 252 253 254 257 260 262 263 264 263 262 262 261 260 260 259 259 258
283 284 285 288 290 291 292 294 296 300 305 307 309 310 310 313 317 324 325 318 310 301 294 288 283 279 275 274 272 273 274 273 272 271 272 272 274 277 279 279 279 277 275 272 269 264 257 248 246 252 253 248 246 243 235 229 232 238 241 242 241 241 242 243 245 247 249 250 251 254 256 259 261 263 264 265 265 265 264 264 263 262 261 259 258
283 285 287 290 291 291 294 297 299 303 307 309 311 311 311 313 320 331 336 333 322 309 298 289 283 279 278 280 283 285 283 280 278 276 275 273 272 273 276 277 277 275 272 271 267 259 251 244 246 251 248 246 246 245 241 237 237 238 238 237 236 236 236 238 241 245 246 247 250 254 258 261 263 264 266 267 268 267 267 266 266 265 263 261 259
285 286 288 290 291 295 298 298 298 302 307 310 312 311 309 309 314 326 338 342 336 322 307 293 285 284 289 297 300 298 298 298 297 292 285 279 275 273 272 273 274 273 271 267 261 254 247 241 244 247 244 245 246 247 247 246 246 246 244 240 237 234 234 237 239 240 242 246 252 258 262 264 264 264 265 267 268 269 270 271 270 268 265 262 259
284 285 286 289 294 298 298 295 294 299 305 311 313 311 307 305 307 317 329 338 342 335 321 304 295 298 309 319 317 324 329 321 314 305 295 288 282 275 269 267 266 266 266 262 258 256 254 252 251 251 250 250 251 250 248 249 251 253 250 247 244 240 237 234 234 237 244 252 260 263 265 265 261 257 258 260 263 268 273 277 278 277 272 266 260
282 282 284 291 296 296 294 292 291 298 305 311 314 312 308 305 307 314 322 331 337 335 327 310 300 308 330 339 333 344 343 316 309 307 299 291 281 270 260 256 254 253 258 261 260 260 264 267 263 259 257 254 254 253 248 248 252 255 256 253 248 242 234 231 234 241 251 260 264 264 264 263 256 250 250 254 261 268 274 281 285 288 285 278 269
279 280 285 292 295 292 291 290 291 298 305 308 312 313 311 311 312 316 321 327 330 331 325 310 300 313 342 338 335 341 332 313 309 308 302 290 266 249 242 243 245 241 245 254 257 258 262 267 267 265 261 255 253 253 250 247 251 261 266 260 250 240 232 233 240 248 257 264 265 263 262 262 257 251 251 257 265 271 277 282 286 290 293 292 284
279 281 285 292 292 288 288 289 292 298 302 305 309 311 312 316 321 323 324 326 327 327 322 307 291 296 317 324 331 334 324 314 310 310 312 298 254 227 227 230 231 223 232 246 255 258 252 252 255 256 255 254 253 255 252 246 253 267 269 259 248 241 238 241 247 254 261 265 265 264 263 263 261 257 256 259 265 271 276 279 283 287 291 295 294
280 282 285 288 287 285 286 289 293 296 298 301 306 307 311 318 324 327 327 327 325 322 317 302 283 285 295 308 321 323 317 313 311 313 316 304 267 238 231 217 205 210 221 231 242 244 241 243 243 244 252 256 256 255 250 247 256 265 263 254 247 245 246 248 252 258 264 265 265 266 265 263 263 261 260 260 263 268 272 275 280 283 285 289 292
279 281 281 282 282 283 286 290 292 293 294 298 303 304 306 312 319 323 325 326 324 317 311 298 283 287 293 299 309 313 312 309 307 307 307 301 285 265 244 220 207 212 218 221 231 238 242 246 248 249 254 257 257 255 254 255 260 261 258 254 250 249 251 253 257 262 266 267 268 268 266 264 263 262 261 261 263 266 269 274 279 282 282 283 286
278 278 276 277 280 282 286 290 291 291 291 294 299 302 302 306 312 316 320 324 325 319 311 298 285 288 293 297 303 307 309 305 299 297 298 296 290 277 257 235 216 217 225 229 234 240 244 248 251 252 253 255 256 256 256 256 256 257 258 258 257 257 258 260 262 264 268 270 270 271 269 266 265 264 264 264 265 267 270 275 279 281 281 279 280
278 276 274 275 279 283 287 289 290 290 290 292 297 300 301 303 307 312 316 320 325 324 315 302 290 290 292 298 302 304 307 304 295 287 287 289 290 291 286 264 242 226 231 242 243 244 246 249 250 250 251 253 255 257 258 258 258 261 263 262 263 263 264 266 266 266 268 269 270 272 271 268 266 265 266 267 268 269 271 275 277 278 277 277 278
278 276 274 275 280 284 287 287 287 288 289 291 295 298 299 301 304 309 313 317 321 321 315 304 295 292 294 299 303 304 306 303 294 283 280 283 287 296 297 276 270 257 245 247 244 242 244 246 248 250 254 258 261 262 261 262 263 264 264 263 264 264 266 267 267 267 268 269 272 274 273 270 267 266 266 267 267 269 271 272 273 272 271 271 273
279 278 276 278 282 285 286 285 285 286 287 289 292 295 297 299 302 306 309 313 318 317 312 303 295 291 294 298 301 303 304 300 294 286 275 271 277 291 293 282 282 276 261 257 252 247 245 248 251 254 259 263 265 264 262 263 264 264 262 263 266 269 272 272 272 273 275 275 278 278 274 270 267 266 267 267 268 269 271 273 273 271 269 267 267
279 280 279 281 283 285 285 285 285 285 286 287 291 294 296 298 300 303 306 310 315 314 309 301 292 288 291 294 297 300 299 296 297 294 281 270 265 271 277 276 272 266 266 269 267 264 262 262 262 261 262 264 265 264 262 261 263 265 268 272 278 280 280 279 279 280 280 280 279 278 275 271 269 268 268 269 270 273 274 274 273 272 270 267 265
279 280 281 282 283 285 286 286 286 286 286 288 290 292 294 296 298 301 303 306 310 310 305 298 289 285 287 290 292 294 292 291 293 293 290 283 271 260 257 261 264 265 269 271 270 271 272 272 272 273 273 274 275 275 274 274 277 283 286 287 286 283 281 279 278 277 277 277 277 276 275 273 271 270 269 270 273 277 278 276 274 273 271 269 266
280 281 282 282 284 285 286 287 287 288 288 289 290 291 292 293 295 298 300 302 305 304 300 296 288 284 285 285 285 287 285 282 283 287 290 288 281 272 263 260 262 265 269 271 272 273 273 273 274 277 280 281 281 281 280 279 280 283 284 283 280 276 275 273 272 271 271 272 273 273 271 271 270 270 271 272 275 279 279 277 275 274 272 270 268
282 283 283 283 284 285 285 286 286 287 288 288 288 288 289 290 292 294 296 298 299 297 294 293 289 284 281 280 279 278 275 275 277 281 284 283 282 279 273 267 264 265 268 270 272 274 275 276 276 277 279 280 280 279 275 271 269 269 270 270 270 268 267 268 268 268 269 270 272 272 271 270 270 270 272 273 275 277 278 278 277 274 272 270 268
283 284 284 283 283 283 284 284 284 284 285 285 285 285 286 287 289 290 292 293 292 290 288 288 287 282 277 274 273 271 267 270 274 274 276 278 280 280 278 272 266 264 266 269 270 271 272 272 272 272 272 272 272 271 269 266 263 263 264 265 266 267 267 269 270 271 271 272 273 273 273 272 273 273 274 275 276 276 276 276 276 275 273 270 268
284 285 284 282 282 282 282 282 283 283 283 283 283 284 285 286 286 287 288 287 286 283 283 283 282 279 274 269 268 265 261 265 271 273 275 276 274 276 280 276 268 262 262 264 267 268 269 269 269 269 269 269 269 268 268 268 267 266 267 267 269 270 271 272 272 272 273 274 274 275 275 275 276 277 278 279 279 279 278 276 275 275 274 272 269
285 286 285 284 283 282 281 281 282 282 282 282 282 283 284 284 284 284 283 282 279 277 279 279 276 273 269 266 265 262 258 259 264 271 277 278 275 277 282 281 273 264 258 258 259 262 264 266 267 268 269 271 272 274 275 276 276 276 276 276 276 275 275 274 274 273 273 274 275 276 277 278 279 280 280 281 280 280 279 278 275 274 274 274 271
282 283 283 283 282 281 281 281 281 282 281 280 281 282 282 281 280 280 278 276 273 273 275 275 271 267 265 263 261 260 260 259 261 267 273 274 275 279 283 282 277 269 260 257 257 258 260 261 263 264 266 269 271 274 276 278 280 282 284 284 283 281 279 276 274 272 272 273 275 277 279 280 281 281 282 282 281 279 278 277 275 272 271 272 272
278 278 278 279 279 279 279 279 280 280 279 279 279 279 278 277 275 275 273 272 270 271 273 272 268 264 263 261 258 258 259 259 260 266 268 268 274 281 284 281 277 271 265 261 261 261 262 264 265 267 268 270 271 272 273 273 275 277 279 282 283 283 281 278 275 272 270 272 276 279 281 282 282 283 283 283 282 280 277 276 273 271 269 268 269
277 276 276 276 277 277 278 278 279 278 277 276 277 276 274 272 271 270 269 269 269 270 272 271 266 262 261 260 259 259 259 258 261 267 269 269 275 282 284 281 275 270 267 267 268 269 269 270 272 274 276 277 278 278 277 276 275 274 274 275 277 277 277 276 275 273 272 275 278 282 283 284 285 285 285 284 283 281 279 277 273 270 268 267 266
279 278 277 277 277 276 276 277 276 275 274 274 274 273 270 268 268 267 267 267 269 271 272 269 264 261 260 259 258 259 260 260 264 270 271 273 279 282 281 277 271 267 267 270 274 275 275 276 277 278 281 283 285 285 285 284 283 281 279 277 275 275 274 274 274 274 275 277 280 283 285 286 286 286 285 284 283 283 281 278 274 271 269 267 265
279 278 278 277 276 275 274 274 273 273 272 272 271 270 269 268 268 267 266 266 268 270 269 267 263 260 260 259 258 259 260 262 268 273 276 281 286 284 279 274 270 267 268 272 277 278 279 279 280 281 282 283 285 287 289 289 288 286 285 283 282 280 279 279 279 279 280 282 284 285 286 286 286 285 284 283 283 282 281 278 275 272 269 267 266
275 275 275 274 273 272 270 270 270 270 270 270 270 270 270 270 269 267 267 267 268 267 266 264 262 260 260 259 259 260 261 264 271 276 280 286 290 286 279 275 271 268 268 273 277 280 283 284 284 284 283 283 284 287 290 291 291 290 288 286 286 285 285 285 285 285 286 286 287 287 286 286 285 284 283 283 282 281 280 277 275 272 270 268 267
271 271 270 269 268 266 266 266 267 268 268 269 269 270 270 269 269 268 268 268 267 266 263 262 261 260 260 260 261 263 265 269 275 279 283 289 291 287 280 275 271 269 269 272 275 278 284 289 292 291 289 287 286 287 290 293 294 293 291 289 287 286 285 285 285 286 286 286 286 286 285 284 284 284 284 283 281 280 278 276 274 273 271 269 268
269 268 267 266 265 265 264 265 265 265 266 266 267 268 269 268 268 267 266 266 266 264 261 260 260 260 261 262 265 267 270 274 278 282 285 288 289 286 281 275 272 269 268 270 272 275 281 290 300 304 301 297 293 291 291 294 297 299 298 296 292 289 286 285 284 284 285 285 285 285 286 286 285 285 284 282 280 279 278 276 274 273 272 271 270
265 266 267 269 269 268 267 266 265 265 264 263 263 264 265 266 265 265 265 266 265 263 261 260 259 261 263 265 267 270 275 279 282 285 286 286 285 283 281 277 273 268 268 270 272 276 279 286 298 308 310 308 305 302 298 296 298 302 304 303 300 296 293 289 287 287 286 287 287 287 287 286 284 284 282 280 279 278 277 276 275 273 273 272 272
264 266 269 272 273 271 269 266 264 262 261 261 262 263 264 265 265 265 265 264 263 262 261 260 262 263 264 266 270 276 282 285 286 287 286 284 281 281 283 280 274 270 270 272 275 280 284 288 296 305 311 312 312 311 308 303 300 301 305 306 305 302 299 295 292 290 289 289 289 288 286 284 282 282 280 278 278 277 276 275 274 274 273 273 273
265 268 271 273 274 273 270 266 262 261 261 262 265 266 267 268 267 265 264 262 261 260 260 262 263 263 265 271 279 285 288 289 289 288 287 284 283 285 288 285 278 274 275 278 281 286 291 295 300 303 307 311 312 312 312 311 307 304 303 305 306 305 303 299 296 293 291 291 290 288 286 283 281 280 278 277 276 275 275 274 274 273 274 274 275
267 270 271 272 272 271 268 265 262 262 263 265 268 269 270 270 268 266 264 261 260 260 261 261 261 263 270 279 286 290 292 291 290 289 287 286 286 291 294 292 286 282 281 284 288 292 297 301 304 305 307 309 310 311 311 312 312 310 307 306 305 305 304 302 299 296 294 293 291 288 285 282 280 279 277 276 274 273 273 272 272 272 273 274 275
271 271 272 271 269 267 266 264 263 264 266 268 269 270 271 271 269 267 265 263 262 261 261 261 264 270 278 285 289 292 293 292 292 290 289 289 290 293 296 295 294 291 289 290 294 297 301 305 306 308 308 308 309 310 310 310 311 312 311 308 306 305 304 302 300 299 297 295 292 289 286 283 281 279 277 276 274 273 272 271 271 271 271 272 272
274 273 272 269 266 265 265 264 264 265 267 268 270 272 274 273 271 269 267 265 262 261 261 265 272 279 285 288 291 292 293 293 292 291 291 292 293 296 296 295 295 295 294 295 298 299 302 305 307 308 308 308 308 309 310 310 310 310 311 310 307 305 303 302 301 299 297 295 293 290 287 285 283 281 279 277 275 274 272 271 271 270 270 270 269
271 269 268 265 264 264 263 263 263 264 266 270 273 275 275 273 271 269 267 264 263 262 265 272 280 285 288 290 292 292 292 292 292 292 293 294 295 297 296 295 295 295 295 296 298 299 302 304 306 307 307 307 307 307 308 309 309 310 311 309 307 304 302 301 299 298 297 295 293 291 288 287 285 283 281 278 276 275 274 273 272 271 270 270 269
263 262 262 262 263 263 263 263 263 265 269 273 275 274 272 271 271 270 268 267 267 268 271 278 284 287 288 291 292 292 291 291 291 292 293 293 294 295 295 293 292 293 294 296 298 299 301 302 304 305 305 305 305 306 308 309 309 309 309 307 305 302 301 300 298 297 296 294 293 291 289 287 286 284 282 280 277 275 274 274 273 273 272 271 270
258 257 258 259 262 265 266 268 271 273 276 278 276 273 271 271 272 271 271 272 274 275 278 283 286 287 288 290 291 291 291 291 291 292 292 292 292 291 290 289 288 289 291 295 297 298 299 300 302 303 303 304 304 305 306 307 307 307 306 305 303 301 300 299 297 296 294 293 292 290 289 288 287 285 283 281 279 277 276 275 275 275 274 274 273
254 254 255 258 262 266 269 272 276 278 279 278 275 273 273 273 273 273 275 277 278 280 283 285 286 287 289 291 291 291 291 291 291 291 290 290 289 289 287 286 287 288 290 292 294 295 297 298 300 301 302 302 302 303 304 304 304 304 304 303 302 300 300 298 296 295 293 292 291 290 289 288 287 285 284 282 281 280 279 278 278 277 276 276 275
256 257 258 260 262 265 269 272 274 276 276 275 274 273 274 274 274 275 278 279 280 282 285 286 287 288 289 290 289 288 288 288 289 289 288 287 287 286 286 285 286 288 289 291 292 294 295 297 298 299 299 299 300 301 301 302 303 303 303 302 301 300 298 297 296 294 292 292 292 290 289 288 287 286 284 283 283 282 282 281 280 280 279 278 278
259 260 262 263 265 267 269 271 273 273 273 271 270 270 270 271 273 275 278 279 282 284 286 286 287 288 288 287 286 285 285 284 285 285 285 284 283 283 284 284 286 287 288 290 291 293 294 295 296 297 297 298 299 299 300 301 302 302 302 302 301 299 298 296 294 293 291 292 293 292 289 289 288 287 286 284 284 284 283 282 281 281 281 280 280
259 261 263 265 267 269 270 271 272 273 273 272 271 271 271 272 274 276 279 281 283 284 284 285 285 286 286 285 284 284 283 283 282 283 282 283 283 284 285 286 287 287 288 289 290 292 293 294 295 296 297 298 298 299 300 301 302 302 302 301 299 299 297 295 295 294 291 291 293 292 290 288 288 287 287 286 285 285 284 283 282 281 280 280 279
260 263 265 267 268 269 269 270 271 273 274 275 275 275 275 275 275 277 278 279 280 280 280 281 282 283 283 282 282 282 282 282 282 283 284 284 285 286 286 287 287 288 289 290 291 292 294 295 296 296 297 298 298 299 300 301 301 301 300 299 298 297 296 295 295 295 292 292 294 294 293 291 289 288 289 288 287 287 286 285 284 283 282 281 281
260 262 265 268 270 271 272 272 272 273 273 273 272 272 273 273 274 275 275 275 275 276 276 277 279 280 280 280 281 281 282 283 284 284 285 286 286 287 287 288 288 289 290 291 292 293 294 295 296 296 297 297 298 299 300 300 300 300 299 298 297 296 295 295 294 294 293 293 294 294 293 293 290 289 291 290 288 288 288 288 287 286 286 285 284
260 261 263 264 266 268 270 271 271 272 272 271 271 270 270 270 270 271 273 273 274 274 274 275 276 278 279 280 281 282 283 284 285 285 286 286 287 287 288 288 289 290 291 291 292 293 294 294 295 295 296 296 297 298 299 299 299 299 298 297 296 294 294 294 294 294 293 293 293 292 292 292 290 289 291 292 291 291 292 290 289 288 288 287 287
260 261 262 262 263 264 265 266 267 268 269 269 269 269 268 268 269 269 270 271 272 274 275 276 278 279 280 281 282 283 284 284 285 285 286 286 287 288 288 289 290 291 291 292 292 293 293 293 294 294 295 296 297 298 298 298 298 297 296 296 294 294 293 293 293 293 293 292 291 290 291 292 290 289 290 292 292 293 293 292 290 289 289 289 289
260 260 261 262 263 264 265 265 265 265 264 264 265 265 265 266 268 269 270 272 273 275 277 278 279 280 281 281 282 283 284 284 285 285 286 286 287 288 289 290 291 291 291 292 292 293 293 293 294 295 295 296 297 297 297 297 296 296 295 295 294 294 293 292 292 292 291 290 289 289 290 290 289 288 289 289 290 290 290 290 290 289 288 288 289
260 261 261 262 263 264 265 265 265 265 265 265 265 266 267 268 270 271 273 274 276 277 278 279 279 280 281 282 282 283 284 284 285 285 286 287 288 289 290 291 291 291 292 292 292 292 293 293 294 295 295 296 296 296 295 295 295 295 295 294 294 294 293 293 292 292 291 290 289 289 290 290 289 289 289 288 288 288 287 287 288 288 287 287 287
Height
10766 10765 10764 10763 10762 10760 10758 10756 10754 10751 10749 10747 10745 10743 10741 10739 10736 10734 10733 10731 10731 10729 10728 10727 10726 10726 10725 10725 10725 10725 10725 10725 10724 10723 10723 10723 10722 10722 10721 10721 10721 10721 10720 10720 10720 10719 10718 10718 10717 10718 10718 10718 10718 10717 10717 10717 10718 10718 10719 10720 10720 10721 10722 10722 10723 10724 10724 10725 10726 10726 10727 10727 10727 10727 10728 10728 10728 10729 10730 10730 10730 10730 10731 10731 10731
10760 10760 10759 10758 10758 10756 10755 10753 10751 10750 10748 10746 10744 10741 10739 10736 10734 10732 10730 10729 10728 10727 10726 10725 10724 10724 10723 10723 10723 10724 10724 10723 10721 10721 10721 10720 10719 10719 10718 10718 10718 10718 10718 10718 10717 10717 10716 10715 10715 10716 10716 10716 10716 10715 10715 10715 10716 10716 10717 10718 10718 10719 10720 10721 10721 10722 10722 10723 10724 10724 10725 10725 10725 10725 10725 10725 10726 10726 10726 10727 10727 10727 10727 10728 10728
10755 10755 10754 10754 10754 10753 10752 10750 10749 10748 10746 10745 10743 10740 10737 10735 10733 10731 10729 10727 10725 10725 10724 10723 10722 10722 10722 10722 10721 10721 10721 10721 10719 10718 10719 10718 10716 10715 10716 10715 10715 10715 10715 10715 10714 10714 10713 10713 10713 10714 10714 10714 10714 10714 10714 10714 10714 10715 10715 10716 10716 10717 10717 10718 10719 10720 10720 10721 10721 10722 10722 10722 10722 10722 10722 10722 10723 10723 10723 10723 10723 10724 10724 10724 10724
10751 10750 10750 10750 10750 10750 10749 10748 10747 10746 10745 10743 10741 10739 10736 10734 10732 10729 10727 10725 10724 10723 10723 10722 10721 10721 10720 10720 10719 10719 10719 10719 10717 10716 10716 10716 10714 10713 10712 10712 10713 10713 10713 10712 10711 10711 10711 10711 10711 10712 10712 10712 10712 10712 10712 10712 10713 10713 10713 10713 10714 10714 10715 10716 10716 10717 10718 10718 10719 10719 10719 10719 10720 10720 10720 10720 10719 10720 10720 10720 10720 10720 10720 10720 10721
10747 10747 10747 10747 10747 10746 10746 10745 10744 10743 10743 10741 10740 10738 10735 10733 10730 10728 10726 10724 10723 10722 10721 10721 10720 10719 10719 10718 10717 10716 10716 10715 10714 10713 10713 10713 10712 10711 10710 10709 10710 10710 10710 10709 10709 10709 10708 10709 10709 10710 10710 10710 10710 10710 10711 10711 10711 10711 10711 10711 10712 10712 10713 10713 10714 10715 10715 10716 10716 10716 10717 10717 10717 10717 10717 10717 10716 10716 10717 10717 10716 10716 10716 10716 10717
10744 10744 10744 10744 10744 10744 10743 10743 10742 10741 10740 10739 10738 10736 10734 10732 10730 10727 10725 10723 10722 10721 10720 10719 10718 10718 10717 10716 10716 10715 10714 10713 10711 10710 10709 10709 10709 10709 10708 10707 10708 10708 10708 10707 10706 10706 10706 10707 10707 10708 10708 10708 10708 10709 10709 10709 10709 10710 10710 10710 10710 10710 10711 10711 10712 10712 10712 10713 10713 10713 10714 10714 10714 10714 10714 10713 10713 10713 10713 10713 10713 10712 10712 10712 10712
10740 10741 10741 10741 10741 10741 10741 10740 10739 10739 10738 10737 10736 10735 10733 10731 10729 10727 10725 10723 10722 10720 10719 10718 10717 10716 10715 10715 10714 10713 10712 10711 10710 10709 10707 10705 10705 10706 10705 10705 10705 10705 10705 10705 10705 10705 10705 10705 10706 10706 10706 10706 10707 10707 10707 10708 10708 10709 10709 10709 10709 10709 10709 10709 10709 10710 10710 10710 10710 10710 10711 10711 10711 10711 10711 10710 10710 10710 10709 10709 10709 10708 10708 10708 10708
10737 10738 10738 10738 10738 10738 10738 10738 10737 10737 10736 10735 10734 10733 10732 10730 10728 10726 10724 10722 10721 10720 10718 10717 10716 10715 10715 10714 10713 10713 10713 10713 10711 10709 10705 10703 10703 10703 10703 10703 10704 10704 10704 10704 10703 10703 10704 10704 10704 10705 10705 10705 10705 10706 10706 10707 10707 10708 10707 10707 10707 10707 10707 10707 10707 10707 10707 10707 10707 10707 10707 10707 10707 10707 10707 10707 10707 10707 10706 10706 10705 10705 10705 10704 10705
10734 10735 10735 10735 10735 10735 10735 10735 10735 10735 10734 10733 10732 10731 10730 10728 10727 10725 10723 10722 10720 10719 10717 10716 10715 10714 10714 10713 10712 10713 10716 10715 10712 10708 10705 10702 10701 10701 10701 10702 10703 10704 10705 10703 10702 10703 10703 10703 10704 10704 10704 10704 10704 10705 10705 10706 10706 10706 10706 10705 10705 10705 10705 10705 10705 10705 10704 10704 10704 10704 10704 10704 10704 10704 10704 10704 10704 10704 10703 10703 10702 10702 10702 10701 10701
10732 10732 10733 10732 10732 10732 10732 10732 10732 10732 10732 10731 10730 10729 10728 10727 10725 10723 10722 10721 10720 10718 10716 10714 10713 10713 10712 10711 10711 10712 10713 10712 10709 10707 10704 10702 10701 10700 10701 10701 10702 10704 10705 10703 10701 10703 10703 10703 10702 10702 10702 10702 10703 10704 10704 10704 10704 10704 10704 10704 10703 10703 10703 10703 10702 10702 10702 10702 10701 10701 10701 10701 10701 10701 10701 10701 10701 10700 10700 10700 10699 10699 10699 10698 10698
10729 10730 10730 10730 10729 10729 10729 10729 10729 10729 10729 10729 10728 10727 10726 10725 10723 10722 10721 10720 10719 10717 10715 10713 10712 10712 10711 10710 10710 10710 10709 10708 10707 10705 10704 10702 10701 10701 10701 10702 10702 10702 10703 10701 10700 10702 10703 10702 10701 10701 10701 10700 10701 10702 10702 10703 10703 10702 10702 10702 10702 10701 10701 10700 10700 10700 10699 10699 10698 10698 10698 10697 10697 10698 10698 10697 10697 10697 10697 10696 10696 10695 10695 10695 10694
10726 10727 10727 10727 10726 10726 10726 10727 10727 10727 10726 10726 10726 10725 10724 10723 10721 10720 10719 10719 10718 10716 10714 10712 10711 10711 10709 10709 10708 10708 10707 10707 10706 10704 10703 10702 10700 10701 10702 10702 10702 10701 10701 10701 10700 10700 10701 10700 10700 10699 10699 10698 10699 10699 10700 10700 10700 10699 10699 10699 10700 10699 10699 10698 10697 10697 10696 10696 10695 10695 10695 10694 10694 10694 10694 10694 10694 10693 10693 10692 10692 10692 10692 10691 10691
10723 10723 10724 10723 10723 10723 10723 10724 10724 10724 10724 10723 10723 10723 10722 10721 10720 10719 10718 10717 10716 10715 10713 10711 10709 10709 10708 10707 10707 10706 10706 10705 10705 10704 10703 10701 10700 10700 10701 10701 10701 10701 10700 10699 10698 10698 10697 10697 10697 10697 10696 10696 10696 10696 10696 10696 10696 10696 10696 10697 10697 10697 10696 10695 10694 10694 10693 10693 10693 10692 10692 10692 10692 10691 10691 10691 10691 10690 10690 10689 10688 10688 10688 10688 10687
10720 10720 10720 10720 10720 10720 10720 10720 10720 10721 10721 10721 10721 10720 10719 10719 10718 10717 10716 10716 10715 10713 10712 10710 10708 10707 10706 10706 10705 10704 10704 10704 10704 10703 10701 10701 10700 10699 10699 10699 10700 10700 10699 10697 10696 10695 10695 10695 10694 10694 10694 10693 10693 10693 10693 10693 10693 10693 10693 10693 10694 10694 10692 10691 10690 10690 10690 10690 10690 10689 10689 10689 10689 10689 10689 10688 10688 10687 10686 10686 10685 10684 10684 10683 10683
10717 10717 10717 10716 10716 10716 10717 10717 10717 10717 10717 10718 10718 10718 10717 10716 10716 10715 10714 10713 10713 10712 10710 10708 10706 10705 10704 10704 10704 10702 10702 10702 10702 10701 10700 10699 10699 10699 10699 10699 10699 10698 10697 10695 10694 10694 10693 10693 10692 10691 10691 10690 10690 10690 10690 10690 10690 10689 10689 10689 10690 10690 10688 10687 10686 10686 10686 10687 10686 10686 10686 10686 10686 10686 10685 10685 10684 10684 10683 10682 10681 10680 10679 10679 10678
10713 10713 10713 10713 10713 10713 10713 10713 10714 10714 10714 10714 10714 10714 10714 10714 10713 10713 10712 10711 10711 10710 10709 10707 10705 10704 10703 10702 10702 10701 10700 10700 10700 10700 10699 10698 10698 10698 10699 10698 10697 10696 10695 10694 10692 10692 10691 10690 10690 10689 10688 10688 10687 10687 10687 10687 10687 10686 10686 10686 10686 10686 10685 10684 10684 10683 10684 10683 10683 10683 10682 10682 10682 10681 10681 10681 10680 10679 10679 10678 10677 10676 10675 10674 10674
10710 10710 10710 10710 10710 10709 10709 10710 10710 10710 10710 10710 10711 10711 10711 10711 10710 10710 10709 10709 10708 10708 10707 10705 10704 10702 10701 10701 10700 10699 10698 10697 10698 10698 10698 10697 10697 10696 10696 10696 10695 10694 10693 10691 10690 10689 10689 10688 10687 10686 10686 10685 10684 10684 10684 10684 10684 10684 10684 10683 10683 10683 10682 10682 10681 10681 10681 10680 10679 10679 10678 10678 10677 10677 10677 10676 10676 10675 10674 10673 10673 10672 10671 10670 10670
10706 10706 10706 10706 10706 10706 10706 10706 10706 10706 10707 10707 10707 10707 10708 10707 10707 10707 10706 10706 10706 10705 10704 10703 10702 10701 10700 10700 10699 10697 10697 10696 10695 10695 10695 10695 10695 10695 10694 10692 10692 10691 10690 10689 10687 10686 10686 10685 10684 10683 10683 10682 10682 10682 10682 10682 10682 10682 10681 10681 10680 10680 10679 10679 10678 10678 10677 10676 10675 10674 10674 10673 10673 10672 10672 10671 10671 10670 10669 10668 10667 10666 10665 10665 10665
10702 10703 10703 10702 10702 10702 10702 10702 10702 10702 10703 10703 10703 10704 10704 10704 10704 10704 10704 10703 10703 10703 10702 10701 10700 10699 10698 10698 10697 10697 10696 10695 10694 10693 10692 10692 10692 10692 10691 10689 10689 10688 10687 10686 10684 10683 10683 10682 10681 10680 10680 10680 10680 10679 10679 10678 10678 10678 10678 10677 10677 10676 10676 10675 10675 10674 10673 10672 10671 10670 10670 10669 10668 10668 10667 10666 10666 10665 10663 10662 10661 10660 10659 10659 10659
10698 10698 10699 10698 10698 10698 10698 10698 10698 10698 10699 10699 10700 10700 10700 10701 10701 10701 10701 10700 10700 10700 10699 10699 10698 10697 10696 10696 10696 10695 10695 10694 10693 10691 10690 10689 10688 10688 10687 10686 10685 10684 10683 10682 10681 10680 10680 10679 10678 10678 10677 10677 10677 10677 10676 10676 10675 10674 10674 10674 10673 10673 10672 10672 10671 10670 10669 10669 10668 10667 10666 10665 10664 10663 10662 10661 10660 10659 10657 10656 10655 10654 10653 10652 10652
10694 10694 10694 10694 10694 10695 10695 10694 10694 10695 10695 10695 10696 10696 10697 10697 10697 10697 10697 10697 10697 10697 10696 10696 10695 10695 10694 10693 10693 10693 10693 10692 10690 10689 10688 10686 10685 10684 10683 10682 10681 10680 10680 10679 10678 10677 10676 10676 10675 10675 10674 10674 10674 10673 10673 10673 10673 10672 10671 10670 10670 10669 10668 10667 10666 10666 10665 10664 10663 10662 10661 10660 10659 10658 10657 10656 10655 10653 10652 10650 10649 10648 10647 10646 10646
10689 10689 10689 10689 10690 10690 10690 10690 10690 10690 10691 10691 10692 10692 10693 10693 10693 10693 10693 10693 10693 10693 10693 10693 10692 10692 10691 10691 10691 10690 10690 10689 10687 10686 10685 10684 10682 10681 10680 10679 10678 10677 10676 10675 10674 10674 10673 10673 10672 10672 10671 10671 10670 10670 10669 10669 10668 10668 10667 10666 10665 10664 10663 10662 10661 10660 10660 10659 10658 10657 10656 10655 10654 10653 10651 10650 10649 10647 10646 10645 10643 10642 10641 10641 10640
10685 10685 10685 10685 10685 10686 10686 10686 10686 10686 10686 10687 10687 10688 10688 10689 10689 10689 10689 10689 10690 10690 10690 10689 10689 10689 10689 10688 10688 10688 10688 10687 10685 10683 10682 10681 10679 10679 10678 10676 10675 10673 10672 10672 10671 10670 10670 10669 10669 10669 10668 10668 10667 10666 10665 10664 10663 10663 10662 10661 10660 10659 10658 10657 10656 10656 10655 10654 10653 10652 10651 10650 10649 10648 10646 10645 10643 10642 10640 10639 10638 10637 10636 10635 10634
10679 10680 10680 10680 10680 10681 10681 10681 10681 10681 10682 10682 10683 10683 10684 10684 10684 10685 10685 10685 10686 10686 10686 10686 10685 10685 10685 10685 10685 10684 10684 10684 10682 10680 10679 10677 10676 10675 10675 10673 10672 10671 10670 10669 10668 10667 10666 10665 10665 10664 10664 10663 10662 10661 10660 10659 10659 10658 10657 10656 10656 10655 10654 10653 10652 10651 10650 10649 10648 10647 10646 10645 10644 10642 10641 10639 10638 10636 10635 10634 10632 10631 10631 10630 10629
10674 10674 10675 10675 10675 10675 10676 10676 10677 10677 10677 10678 10678 10679 10679 10680 10680 10681 10681 10681 10681 10682 10683 10682 10682 10681 10681 10681 10681 10680 10680 10680 10679 10678 10677 10674 10673 10673 10672 10670 10669 10667 10666 10666 10665 10664 10663 10662 10661 10660 10660 10659 10658 10657 10655 10654 10654 10653 10653 10652 10651 10650 10649 10648 10647 10647 10646 10645 10643 10642 10641 10639 10638 10637 10635 10634 10632 10630 10629 10628 10626 10626 10625 10624 10624
10670 10670 10670 10670 10670 10670 10671 10672 10672 10672 10673 10673 10674 10674 10675 10676 10676 10677 10677 10677 10678 10678 10678 10678 10678 10678 10677 10677 10677 10676 10676 10676 10676 10675 10674 10672 10670 10669 10668 10667 10665 10664 10663 10662 10661 10660 10659 10659 10658 10657 10656 10655 10654 10653 10651 10650 10649 10649 10648 10647 10646 10645 10644 10643 10643 10641 10640 10639 10638 10636 10635 10633 10632 10630 10629 10627 10626 10624 10623 10621 10620 10619 10618 10618 10618
10666 10666 10666 10665 10665 10665 10666 10667 10668 10668 10668 10669 10669 10670 10671 10671 10672 10673 10673 10673 10674 10674 10674 10674 10674 10674 10674 10673 10673 10673 10673 10673 10672 10672 10671 10669 10667 10666 10665 10664 10662 10660 10660 10659 10658 10657 10656 10655 10654 10654 10653 10652 10651 10649 10648 10647 10646 10645 10644 10643 10641 10640 10639 10638 10637 10636 10634 10633 10631 10629 10628 10626 10625 10623 10622 10620 10619 10618 10616 10615 10614 10613 10612 10611 10611
10661 10661 10661 10661 10661 10661 10661 10662 10663 10664 10664 10664 10665 10666 10666 10667 10668 10669 10669 10669 10670 10669 10669 10670 10670 10670 10670 10670 10669 10669 10669 10669 10669 10668 10668 10667 10665 10664 10662 10660 10659 10657 10657 10656 10655 10654 10653 10652 10651 10650 10650 10648 10647 10645 10644 10643 10642 10641 10640 10638 10637 10635 10633 10632 10631 10630 10629 10627 10625 10623 10621 10619 10618 10616 10615 10613 10612 10611 10609 10608 10607 10606 10605 10604 10604
10657 10656 10656 10656 10656 10657 10657 10658 10659 10659 10659 10660 10661 10662 10662 10663 10664 10664 10665 10665 10666 10665 10665 10665 10665 10665 10665 10665 10665 10665 10665 10665 10664 10664 10663 10663 10662 10660 10658 10657 10656 10655 10654 10653 10652 10650 10650 10649 10648 10647 10646 10645 10643 10642 10640 10638 10637 10636 10635 10633 10631 10629 10628 10626 10625 10624 10622 10620 10618 10616 10614 10612 10611 10609 10608 10606 10605 10604 10602 10601 10600 10599 10598 10598 10597
10652 10652 10651 10651 10651 10652 10653 10654 10654 10655 10655 10656 10657 10658 10658 10659 10659 10660 10660 10661 10661 10661 10660 10660 10660 10660 10661 10661 10661 10661 10661 10660 10660 10659 10659 10658 10657 10656 10654 10653 10652 10651 10650 10649 10648 10647 10646 10645 10644 10643 10642 10641 10639 10637 10635 10634 10632 10631 10629 10627 10625 10623 10621 10620 10619 10617 10615 10613 10611 10609 10607 10605 10604 10602 10601 10599 10598 10596 10595 10594 10593 10592 10591 10591 10591
10647 10647 10647 10647 10647 10647 10648 10649 10650 10651 10651 10652 10652 10653 10654 10655 10655 10655 10656 10656 10657 10657 10656 10656 10655 10655 10656 10656 10656 10656 10656 10656 10655 10655 10654 10653 10653 10651 10650 10649 10648 10647 10646 10645 10644 10643 10643 10641 10640 10639 10638 10636 10635 10633 10631 10629 10628 10626 10624 10622 10620 10618 10616 10614 10613 10611 10609 10607 10605 10603 10600 10598 10597 10595 10593 10592 10590 10589 10588 10587 10586 10585 10584 10584 10584
10642 10643 10643 10643 10643 10643 10644 10645 10646 10646 10647 10648 10648 10649 10649 10650 10651 10651 10651 10651 10652 10652 10651 10651 10651 10651 10651 10651 10651 10651 10651 10651 10650 10649 10649 10648 10648 10647 10646 10645 10644 10642 10641 10641 10640 10639 10638 10637 10636 10635 10634 10632 10630 10629 10627 10625 10623 10622 10620 10618 10615 10613 10611 10609 10607 10605 10603 10601 10598 10596 10594 10591 10589 10587 10586 10584 10583 10582 10581 10580 10579 10578 10577 10577 10577
10637 10638 10639 10639 10639 10639 10640 10641 10642 10642 10642 10643 10644 10644 10645 10646 10647 10647 10647 10647 10647 10647 10647 10646 10646 10646 10646 10646 10647 10647 10646 10646 10645 10644 10643 10643 10643 10642 10641 10640 10639 10638 10637 10636 10635 10635 10634 10633 10631 10630 10628 10627 10625 10624 10622 10620 10618 10616 10614 10613 10610 10608 10605 10603 10601 10599 10596 10594 10592 10589 10587 10585 10583 10581 10579 10578 10577 10576 10575 10574 10573 10572 10571 10570 10570
10632 10634 10635 10635 10635 10635 10636 10637 10638 10638 10638 10638 10639 10640 10640 10641 10642 10642 10642 10642 10642 10642 10642 10642 10642 10642 10642 10642 10642 10642 10642 10641 10640 10639 10638 10638 10638 10637 10636 10636 10634 10633 10633 10632 10631 10630 10629 10627 10626 10624 10623 10621 10619 10618 10616 10615 10613 10610 10608 10606 10604 10601 10599 10597 10595 10592 10590 10587 10585 10583 10581 10578 10576 10575 10573 10572 10571 10570 10569 10568 10567 10566 10565 10564 10563
10628 10629 10631 10631 10631 10632 10632 10633 10634 10634 10634 10634 10634 10635 10636 10637 10637 10638 10638 10637 10637 10637 10637 10637 10637 10637 10637 10637 10637 10637 10637 10636 10635 10634 10633 10633 10633 10632 10631 10631 10630 10629 10628 10627 10626 10624 10623 10621 10620 10618 10617 10615 10613 10612 10610 10608 10607 10605 10602 10600 10597 10594 10591 10589 10587 10585 10583 10581 10579 10576 10574 10572 10570 10569 10567 10566 10565 10564 10563 10562 10561 10561 10560 10558 10557
10623 10624 10625 10626 10627 10627 10628 10628 10629 10630 10630 10629 10629 10630 10631 10632 10632 10633 10633 10633 10632 10632 10633 10633 10633 10633 10632 10632 10632 10632 10631 10631 10630 10629 10628 10627 10627 10627 10626 10625 10624 10623 10622 10621 10620 10618 10617 10615 10614 10612 10610 10609 10607 10606 10604 10602 10600 10598 10596 10593 10590 10587 10584 10581 10580 10578 10576 10574 10572 10570 10568 10566 10564 10562 10561 10560 10559 10558 10557 10556 10556 10555 10554 10553 10552
10618 10619 10620 10621 10622 10622 10623 10624 10624 10625 10625 10625 10625 10625 10626 10627 10627 10627 10628 10628 10628 10628 10628 10628 10628 10628 10627 10627 10627 10627 10626 10625 10624 10623 10622 10622 10622 10621 10620 10619 10618 10616 10615 10614 10613 10611 10609 10608 10607 10605 10604 10602 10601 10599 10598 10596 10593 10592 10589 10586 10583 10580 10577 10574 10572 10570 10568 10566 10564 10563 10561 10559 10558 10556 10555 10554 10553 10552 10551 10550 10549 10549 10548 10547 10545
10613 10614 10615 10616 10617 10618 10619 10619 10620 10620 10620 10621 10621 10621 10621 10621 10622 10622 10622 10623 10623 10623 10623 10623 10623 10623 10622 10621 10621 10621 10620 10619 10618 10618 10616 10616 10615 10614 10613 10612 10610 10609 10608 10607 10605 10604 10602 10600 10599 10598 10596 10595 10593 10592 10590 10589 10586 10584 10582 10579 10575 10572 10569 10566 10564 10562 10560 10559 10557 10555 10554 10552 10551 10550 10549 10547 10546 10545 10544 10543 10543 10542 10541 10540 10539
10607 10608 10609 10610 10611 10612 10613 10614 10614 10615 10615 10616 10617 10616 10616 10616 10617 10617 10617 10618 10618 10618 10618 10618 10617 10617 10616 10615 10615 10615 10614 10613 10612 10612 10610 10609 10608 10607 10606 10604 10603 10602 10601 10600 10598 10596 10594 10593 10592 10591 10589 10587 10586 10584 10583 10581 10578 10576 10574 10571 10568 10565 10562 10559 10557 10555 10553 10551 10550 10548 10547 10546 10545 10544 10542 10541 10540 10538 10537 10536 10536 10535 10534 10533 10531
10603 10604 10604 10604 10605 10606 10607 10608 10609 10609 10610 10611 10611 10611 10611 10611 10611 10611 10612 10613 10613 10613 10612 10612 10611 10610 10610 10609 10609 10608 10608 10607 10606 10605 10604 10602 10601 10599 10598 10597 10596 10595 10594 10593 10591 10589 10587 10586 10585 10584 10582 10580 10578 10576 10574 10572 10569 10567 10565 10563 10561 10558 10556 10553 10550 10548 10546 10545 10543 10542 10540 10539 10538 10537 10536 10534 10533 10532 10531 10529 10528 10528 10527 10526 10524
10599 10599 10600 10599 10599 10600 10601 10601 10602 10603 10603 10604 10604 10605 10605 10605 10605 10605 10606 10606 10606 10606 10606 10605 10605 10604 10603 10602 10602 10601 10601 10600 10600 10598 10597 10595 10593 10592 10591 10590 10589 10588 10587 10585 10584 10583 10581 10579 10577 10576 10574 10572 10569 10568 10566 10564 10562 10560 10558 10556 10554 10551 10549 10547 10544 10541 10540 10538 10536 10535 10533 10532 10532 10530 10529 10527 10526 10525 10524 10523 10522 10521 10520 10518 10517
10594 10595 10595 10596 10595 10595 10595 10596 10596 10597 10597 10597 10598 10598 10599 10599 10599 10599 10599 10599 10599 10599 10599 10599 10598 10597 10596 10595 10594 10594 10593 10592 10591 10590 10589 10587 10586 10585 10584 10583 10582 10581 10580 10579 10577 10576 10574 10572 10570 10568 10566 10564 10562 10561 10559 10557 10555 10553 10550 10548 10546 10544 10541 10540 10537 10534 10532 10532 10531 10528 10526 10525 10525 10524 10522 10520 10519 10518 10518 10516 10515 10514 10512 10511 10509
10588 10589 10590 10591 10591 10591 10591 10592 10592 10592 10592 10592 10592 10592 10592 10593 10593 10593 10593 10592 10592 10592 10592 10591 10591 10590 10589 10588 10587 10586 10585 10584 10583 10582 10581 10580 10579 10578 10578 10577 10576 10575 10574 10572 10570 10569 10567 10565 10563 10560 10558 10557 10555 10553 10552 10550 10547 10545 10542 10540 10538 10536 10534 10532 10530 10527 10524 10524 10524 10523 10520 10519 10518 10518 10516 10514 10513 10512 10511 10510 10508 10507 10505 10503 10501
10582 10582 10583 10585 10586 10587 10587 10587 10587 10587 10587 10587 10587 10587 10587 10587 10587 10587 10587 10586 10585 10585 10584 10583 10582 10581 10581 10580 10580 10579 10578 10577 10576 10576 10575 10575 10574 10573 10572 10571 10570 10569 10567 10566 10564 10562 10560 10558 10556 10553 10550 10549 10547 10544 10543 10542 10539 10536 10534 10531 10529 10528 10526 10524 10523 10521 10517 10515 10517 10517 10514 10512 10510 10510 10510 10508 10507 10506 10505 10503 10502 10500 10498 10496 10494
10576 10577 10578 10579 10580 10581 10582 10581 10581 10581 10581 10582 10582 10582 10582 10582 10581 10580 10580 10579 10578 10577 10576 10575 10574 10573 10573 10573 10572 10572 10571 10571 10571 10570 10570 10569 10568 10567 10566 10564 10562 10561 10560 10558 10555 10554 10552 10550 10547 10544 10541 10540 10537 10535 10533 10532 10530 10527 10524 10523 10520 10519 10517 10515 10514 10515 10511 10507 10508 10509 10508 10506 10503 10502 10503 10501 10499 10499 10498 10496 10494 10493 10491 10489 10486
10571 10572 10573 10573 10574 10575 10576 10576 10576 10575 10575 10574 10574 10574 10574 10573 10573 10573 10572 10571 10571 10570 10569 10568 10567 10566 10566 10565 10565 10565 10565 10565 10565 10564 10563 10562 10561 10559 10557 10555 10553 10551 10550 10548 10545 10543 10542 10539 10537 10534 10532 10529 10527 10525 10523 10521 10519 10518 10515 10514 10512 10510 10509 10506 10505 10505 10503 10499 10499 10499 10499 10499 10495 10492 10494 10494 10491 10491 10491 10489 10486 10485 10483 10481 10479
10568 10568 10568 10568 10568 10568 10569 10569 10569 10569 10569 10568 10568 10567 10566 10566 10566 10565 10565 10564 10564 10563 10562 10562 10561 10560 10560 10559 10558 10558 10558 10557 10557 10556 10554 10553 10551 10549 10547 10545 10543 10541 10540 10537 10534 10533 10531 10529 10527 10524 10522 10520 10517 10514 10513 10511 10509 10508 10507 10505 10503 10501 10500 10499 10497 10496 10494 10492 10490 10489 10488 10490 10488 10482 10483 10485 10483 10482 10483 10481 10477 10475 10474 10473 10470
10563 10564 10564 10564 10564 10563 10563 10563 10563 10563 10562 10562 10562 10561 10560 10560 10559 10559 10558 10558 10557 10556 10556 10555 10554 10554 10553 10551 10551 10550 10549 10548 10547 10546 10544 10542 10541 10539 10537 10535 10533 10531 10529 10527 10524 10523 10521 10519 10517 10515 10513 10510 10508 10505 10503 10502 10500 10498 10497 10497 10495 10492 10491 10490 10489 10489 10487 10484 10482 10480 10479 10481 10480 10474 10472 10474 10472 10471 10473 10473 10469 10465 10463 10463 10462
10557 10558 10558 10559 10559 10559 10558 10558 10558 10557 10557 10556 10556 10555 10554 10554 10553 10552 10552 10551 10550 10549 10548 10547 10546 10545 10543 10542 10541 10540 10539 10539 10537 10535 10534 10532 10530 10529 10527 10525 10523 10521 10519 10517 10514 10512 10511 10510 10507 10505 10502 10500 10498 10495 10493 10491 10490 10489 10487 10487 10486 10484 10483 10482 10480 10480 10480 10477 10473 10470 10470 10471 10471 10467 10464 10464 10463 10460 10460 10461 10461 10457 10453 10452 10452
10551 10551 10552 10552 10552 10552 10551 10551 10551 10551 10550 10550 10549 10548 10547 10546 10545 10545 10544 10543 10542 10541 10540 10538 10537 10535 10534 10532 10531 10530 10529 10528 10526 10524 10523 10522 10520 10518 10516 10515 10513 10510 10507 10506 10505 10502 10501 10500 10497 10494 10492 10490 10487 10486 10483 10481 10480 10479 10478 10477 10476 10474 10474 10473 10471 10471 10472 10470 10465 10461 10462 10463 10461 10459 10457 10455 10454 10453 10450 10448 10449 10449 10446 10442 10441
10543 10544 10544 10544 10544 10544 10543 10543 10543 10542 10542 10541 10540 10540 10539 10538 10537 10536 10535 10534 10533 10532 10530 10529 10527 10526 10525 10523 10522 10521 10519 10518 10516 10513 10512 10511 10509 10507 10505 10503 10501 10499 10496 10495 10495 10492 10489 10488 10487 10484 10482 10480 10477 10475 10474 10471 10469 10468 10467 10465 10465 10464 10462 10462 10461 10460 10460 10461 10457 10452 10452 10453 10452 10450 10448 10445 10444 10445 10443 10438 10436 10437 10437 10434 10432